D7126 Weather Reports


Display with metric or nautical units.
time (UTC)temp
F
wind
direction
speed
MPH
gust
MPH
rain 1hr
in
rain 24hr
in
rain mn
in
humidity
%
barometer
mb
20260503202507 59 336 4.0 9.0 0.00 0.00 0.00 82 1008.7
20260503202005 59 355 5.0 8.0 0.00 0.00 0.00 82 1008.6
20260503201505 59 329 5.0 10.0 0.00 0.00 0.00 82 1008.6
20260503201005 59 337 6.0 10.0 0.00 0.00 0.00 82 1008.5
20260503200506 60 325 5.0 11.0 0.00 0.00 0.00 82 1008.4
20260503200006 60 322 5.0 11.0 0.00 0.00 0.00 82 1008.4
20260503195736 60 346 5.0 10.0 0.00 0.00 0.00 82 1008.3
20260503195005 60 333 5.0 7.0 0.00 0.00 0.00 81 1008.3
20260503194507 60 330 6.0 13.0 0.00 0.00 0.00 81 1008.2
20260503194007 60 332 6.0 13.0 0.00 0.00 0.00 81 1008.2
20260503193744 60 331 6.0 10.0 0.00 0.00 0.00 80 1008.2
20260503193008 60 339 6.0 10.0 0.00 0.00 0.00 79 1008.2
20260503192504 60 333 7.0 12.0 0.00 0.00 0.00 79 1008.1
20260503192047 60 341 7.0 12.0 0.00 0.00 0.00 79 1007.9
20260503192039 60 335 7.0 12.0 0.00 0.00 0.00 79 1007.9
20260503191749 61 338 7.0 12.0 0.00 0.00 0.00 79 1007.9
20260503190510 61 315 6.0 10.0 0.00 0.00 0.00 79 1007.8
20260503190241 61 328 7.0 0.0 0.00 0.00 0.00 79 1007.9
20260503190108 61 335 8.0 15.0 0.00 0.00 0.00 79 1007.8
20260503185213 61 322 7.0 15.0 0.00 0.00 0.00 79 1007.8
20260503184936 62 316 8.0 15.0 0.00 0.00 0.00 79 1013.2
20260503184207 62 313 9.0 15.0 0.00 0.00 0.00 80 1007.8
20260503183636 62 355 9.0 14.0 0.00 0.00 0.00 80 1007.7
20260503183131 62 326 9.0 14.0 0.00 0.00 0.00 80 1007.7
20260503182620 62 321 9.0 15.0 0.00 0.00 0.00 80 1007.7
20260503182106 62 333 9.0 15.0 0.00 0.00 0.00 79 1007.7
20260503181603 62 323 8.0 14.0 0.00 0.00 0.00 81 1007.6
20260503181104 62 333 7.0 14.0 0.00 0.00 0.00 81 1007.7
20260503180604 62 337 6.0 14.0 0.00 0.00 0.00 82 1007.7
20260503175544 62 324 8.0 14.0 0.00 0.00 0.00 83 1013.1
20260503175031 62 308 8.0 14.0 0.00 0.00 0.00 82 1007.8
20260503174530 62 315 9.0 13.0 0.00 0.00 0.00 82 1007.8
20260503174031 62 291 9.0 13.0 0.00 0.00 0.00 82 1007.8
20260503174008 63 313 9.0 14.0 0.00 0.00 0.00 82 1007.8
20260503173003 63 315 8.0 14.0 0.00 0.00 0.00 81 1007.8
20260503172504 63 306 6.0 12.0 0.00 0.00 0.00 84 1007.9
20260503172004 62 337 7.0 12.0 0.00 0.00 0.00 83 1007.9
20260503171502 63 324 7.0 13.0 0.00 0.00 0.00 81 1007.9
20260503170931 63 328 7.0 13.0 0.00 0.00 0.00 80 1007.9
20260503170432 64 313 7.0 12.0 0.00 0.00 0.00 82 1007.9
20260503160203 63 342 9.0 15.0 0.00 0.00 0.00 81 1007.8
20260503150933 65 326 9.0 16.0 0.00 0.00 0.00 81 1008.0
20260503150207 64 316 9.0 15.0 0.00 0.00 0.00 80 1008.1
20260503140103 63 282 7.0 13.0 0.00 0.00 0.00 85 1008.3
20260503130938 64 275 6.0 12.0 0.00 0.00 0.00 83 1008.2
20260503130430 64 320 7.0 14.0 0.00 0.00 0.00 82 1008.2
20260503110236 62 246 10.0 16.0 0.00 0.01 0.00 85 1008.5
20260503081231 60 252 7.0 7.0 0.00 0.10 0.00 88 1008.1
20260503080705 60 234 7.0 12.0 0.00 0.10 0.00 88 1008.1
20260503080209 60 263 5.0 12.0 0.00 0.11 0.00 89 1008.1
20260503072705 58 24 0.0 1.0 0.00 0.16 0.00 91 1008.0
20260503072207 57 24 0.0 1.0 0.00 0.17 0.00 92 1008.0
20260503071706 56 24 0.0 0.0 0.00 0.17 0.00 91 1008.0
20260503071203 56 24 0.0 0.0 0.00 0.17 0.00 91 1007.9
20260503070707 56 18 0.0 0.0 0.00 0.17 0.00 91 1007.9
20260503070203 56 18 0.0 0.0 0.00 0.17 0.00 91 1007.8
20260503060137 55 335 0.0 1.0 0.00 0.20 0.00 91 1007.6
20260503055109 55 335 0.0 0.0 0.00 0.20 0.00 90 1007.6
20260503054604 55 335 0.0 1.0 0.00 0.20 0.00 91 1007.5
20260503054103 55 335 0.0 1.0 0.00 0.20 0.00 90 1007.5
20260503053603 55 322 0.0 0.0 0.00 0.20 0.00 90 1007.5
20260503053103 56 322 0.0 0.0 0.00 0.20 0.00 90 1007.5
20260503052603 56 303 0.0 0.0 0.00 0.20 0.00 90 1007.4
20260503052104 56 303 0.0 0.0 0.00 0.20 0.00 90 1007.4
20260503051845 57 303 0.0 0.0 0.00 0.20 0.00 90 1007.4
20260503051103 57 303 0.0 0.0 0.00 0.20 0.00 90 1007.4
20260503050603 57 303 0.0 0.0 0.00 0.20 0.00 90 1007.5
20260503045547 57 303 0.0 2.0 0.00 0.20 0.00 90 1007.5
20260503045318 57 313 0.0 2.0 0.00 0.20 0.00 90 1007.5
20260503045044 57 303 0.0 0.0 0.00 0.20 0.00 90 1007.5
20260503044030 57 313 0.0 2.0 0.00 0.20 0.00 90 1007.4
20260503043506 57 304 0.0 2.0 0.00 0.20 0.00 90 1007.4
20260503043003 57 304 0.0 2.0 0.00 0.20 0.00 90 1007.4
20260503042505 57 304 0.0 3.0 0.00 0.20 0.00 90 1007.4
20260503042004 57 304 0.0 3.0 0.00 0.20 0.00 90 1007.4
20260503041502 57 304 0.0 3.0 0.00 0.20 0.00 90 1007.4
20260503041002 57 304 0.0 3.0 0.00 0.20 0.00 90 1007.4
20260503040502 57 252 0.0 3.0 0.00 0.20 0.00 90 1007.5
20260503035946 57 252 0.0 3.0 0.00 0.20 0.00 90 1007.5
20260503035431 57 251 0.0 2.0 0.00 0.20 0.00 90 1007.4
20260503034933 57 250 1.0 1.0 0.00 0.20 0.00 90 1007.5
20260503034431 57 250 1.0 2.0 0.00 0.20 0.00 90 1007.5
20260503034157 57 250 1.0 2.0 0.00 0.20 0.00 90 1007.6
20260503033431 58 254 0.0 2.0 0.00 0.20 0.00 90 1007.6
20260503032903 58 257 0.0 1.0 0.00 0.21 0.00 90 1007.6
20260503032401 58 258 0.0 2.0 0.00 0.21 0.00 90 1007.6
20260503032108 58 259 0.0 0.0 0.00 0.21 0.00 90 1007.7
20260503031620 58 259 0.0 3.0 0.00 0.21 0.00 90 1007.7
20260503030806 58 259 1.0 3.0 0.00 0.21 0.00 90 1007.7
20260503030536 58 259 2.0 5.0 0.00 0.21 0.00 90 1007.8
20260503025804 58 259 2.0 5.0 0.00 0.21 0.00 90 1007.7
20260503025305 58 264 2.0 4.0 0.00 0.21 0.00 90 1007.9
20260503024805 58 247 2.0 3.0 0.00 0.21 0.00 90 1007.8
20260503024309 58 257 2.0 5.0 0.00 0.21 0.00 90 1007.9
20260503023804 58 259 1.0 5.0 0.00 0.21 0.00 90 1007.9
20260503023306 58 248 2.0 4.0 0.00 0.21 0.00 90 1007.9
20260503022804 58 248 2.0 4.0 0.00 0.21 0.00 91 1007.9
20260503022305 58 252 2.0 4.0 0.00 0.21 0.00 91 1007.8
20260503021804 59 242 3.0 3.0 0.00 0.21 0.00 91 1007.9
20260503021302 58 242 3.0 7.0 0.00 0.21 0.00 91 1007.9
20260503020731 58 245 3.0 7.0 0.00 0.21 0.00 91 1007.9
20260503020231 59 237 2.0 3.0 0.00 0.21 0.00 91 1008.0
20260503015704 58 244 2.0 6.0 0.00 0.21 0.00 91 1008.0
20260503015203 58 254 2.0 6.0 0.00 0.21 0.00 91 1008.0
20260503014705 58 263 3.0 8.0 0.00 0.21 0.00 91 1013.5
20260503014203 58 256 4.0 8.0 0.00 0.21 0.00 91 1008.1
20260503013705 58 257 4.0 10.0 0.00 0.21 0.00 91 1008.2
20260503013441 58 263 4.0 10.0 0.00 0.21 0.00 91 1008.2
20260503012704 58 277 2.0 9.0 0.00 0.21 0.00 91 1008.3
20260503012203 58 271 2.0 5.0 0.00 0.21 0.00 91 1008.3
20260503011703 58 266 2.0 5.0 0.00 0.21 0.00 91 1008.4
20260503011203 58 261 2.0 5.0 0.00 0.21 0.00 91 1008.3
20260503011140 58 267 2.0 5.0 0.00 0.21 0.00 91 1013.7
20260503010130 58 265 2.0 5.0 0.00 0.21 0.00 91 1008.3
20260503005631 58 251 2.0 4.0 0.00 0.21 0.00 91 1008.5
20260503005105 58 242 2.0 4.0 0.00 0.21 0.00 91 1008.5
20260503004836 58 243 2.0 4.0 0.00 0.21 0.00 91 1008.6
20260503004104 58 243 2.0 4.0 0.00 0.21 0.00 91 1008.6
20260503003604 58 241 2.0 4.0 0.00 0.21 0.00 91 1008.7
20260503003105 58 236 2.0 4.0 0.00 0.21 0.00 91 1008.6
20260503002620 58 257 2.0 5.0 0.00 0.21 0.00 91 1008.7
20260503002616 58 252 2.0 5.0 0.00 0.21 0.00 91 1008.6
20260503001603 58 245 2.0 3.0 0.00 0.21 0.00 91 1008.7
20260503001105 58 247 2.0 3.0 0.00 0.21 0.00 91 1008.8
20260503000605 58 249 2.0 3.0 0.00 0.21 0.00 91 1008.8
20260503000327 58 242 2.0 7.0 0.00 0.21 0.00 91 1008.8
20260502235603 58 247 2.0 7.0 0.00 0.21 0.00 91 1008.9
20260502235103 59 256 2.0 4.0 0.00 0.21 0.00 91 1008.9
20260502234603 59 243 2.0 4.0 0.00 0.21 0.00 91 1014.4
20260502234103 59 238 2.0 3.0 0.00 0.21 0.00 91 1009.0
20260502233532 59 238 2.0 4.0 0.00 0.21 0.00 91 1009.0
20260502233031 59 219 2.0 4.0 0.00 0.21 0.00 91 1009.0
20260502232504 59 227 2.0 5.0 0.00 0.21 0.00 91 1014.5
20260502232004 59 229 2.0 5.0 0.00 0.21 0.00 91 1009.2
20260502231504 59 253 3.0 7.0 0.00 0.21 0.00 91 1009.2
20260502231003 59 253 3.0 7.0 0.00 0.21 0.00 91 1009.2
20260502230503 59 254 4.0 6.0 0.00 0.21 0.00 91 1009.3
20260502230214 59 242 3.0 7.0 0.00 0.21 0.21 91 1009.3
20260502225431 59 220 3.0 7.0 0.00 0.21 0.21 91 1009.2
20260502224931 59 218 3.0 3.0 0.00 0.21 0.21 91 1009.3
20260502224417 59 225 4.0 6.0 0.00 0.21 0.21 91 1009.3
20260502224148 59 226 4.0 5.0 0.00 0.21 0.21 91 1009.3
20260502223350 59 229 4.0 7.0 0.00 0.21 0.21 92 1009.3
20260502222831 59 240 4.0 7.0 0.00 0.21 0.21 92 1009.3
20260502222607 59 241 4.0 5.0 0.00 0.21 0.21 92 1009.4
20260502221804 59 236 4.0 4.0 0.00 0.21 0.21 91 1009.4
20260502221304 59 219 4.0 6.0 0.00 0.21 0.21 91 1009.3
20260502220803 59 215 4.0 6.0 0.00 0.21 0.21 91 1009.3
20260502220231 59 225 5.0 8.0 0.00 0.21 0.21 91 1009.4
20260502215730 59 227 5.0 8.0 0.00 0.21 0.21 91 1009.4
20260502215231 59 205 5.0 6.0 0.00 0.21 0.21 91 1014.8
20260502214730 59 216 4.0 5.0 0.00 0.21 0.21 91 1009.4
20260502214507 59 210 4.0 6.0 0.00 0.21 0.21 91 1009.4
20260502213730 59 216 4.0 6.0 0.00 0.21 0.21 91 1009.4
20260502213231 59 224 4.0 5.0 0.00 0.21 0.21 91 1009.5
20260502213010 59 213 4.0 6.0 0.00 0.21 0.21 91 1009.5
20260502212230 58 214 5.0 6.0 0.00 0.21 0.21 91 1009.4
20260502211704 59 213 5.0 5.0 0.00 0.21 0.21 90 1009.4
20260502211209 59 209 5.0 6.0 0.00 0.21 0.21 90 1009.4
20260502210952 59 212 5.0 6.0 0.00 0.21 0.21 90 1009.4
20260502210205 59 211 5.0 6.0 0.00 0.21 0.21 90 1009.3
20260502205706 59 209 5.0 6.0 0.00 0.21 0.21 90 1009.2
20260502205207 60 223 5.0 5.0 0.00 0.21 0.21 90 1009.1
20260502204703 60 217 5.0 8.0 0.00 0.21 0.21 90 1009.1
20260502204207 60 227 5.0 8.0 0.00 0.21 0.21 90 1009.1
20260502203703 60 230 6.0 8.0 0.00 0.21 0.21 90 1009.0
20260502203132 60 222 6.0 8.0 0.00 0.21 0.21 90 1009.0